sat.trackr.live / text

‹ back to catalog

KL-ALPHA A

NORAD 44785 · 2019-077A

PAYLOAD ACTIVE UNKNOWN

§ Identity

Operator
Country
GER
Launch date
2019-11-17
Launch site
JSC
Launch vehicle
Mass (kg)
RCS (m²)

External: N2YO · Heavens-Above · Gunter

§ Orbital elements

Epoch: 2026-09-20T05:35:05.253216Z

Period
106.19 min
Inclination
88.9315°
Eccentricity
0.0010175
Mean motion
13.56050174 rev/d
Perigee alt
1,042.5 km
Apogee alt
1,057.6 km
Semi-major
7,428.2 km
B*
6.3620e-5
RAAN
212.1825°
Arg perigee
181.2451°
Mean anomaly
178.8679°
Rev number
33,861

§ Raw data

KL-ALPHA A1 44785U 19077A   26263.23269969  .00000057  00000+0  63620-4 0  99992 44785  88.9315 212.1825 0010175 181.2451 178.8679 13.56050174338610

JSON: /api/v1/satellites/44785 · /tle

For live sub-satellite position, see the globe view (requires WebGL).

§ Visibility from observer

Set your observer location to see the next 7 days of passes ≥ 10°. The values pass through the URL so the page stays shareable.

No JS? Fill the form by hand. The geolocation button needs JavaScript.

§ Radio — SatNOGS DB

ModeDescriptionDownlinkUplink
BPSK Mode S 2.220 GHz

1 transmitter · refreshed weekly from db.satnogs.org